Location: El Frío
(10.0713°N, 67.9111°W)
Time: 19:15:52
(UTC+00:00)

Delta 168 - Pass Details

Date: 11 December 2025
Orbit: 391 x 1874 km, 25.3° (Epoch: 20 January)

Event Time Altitude Azimuth Distance (km) Brightness Sun altitude
Rises 22:23:33 0° 292° (WNW) 2,346 6.8 -3.6°
Reaches altitude 10° 22:25:26 10° 290° (WNW) 1,562 5.9 -4.0°
Maximum altitude 22:28:54 73° 205° (SSW) 551 3.0 -4.8°
Drops below altitude 10° 22:33:37 10° 120° (ESE) 2,114 5.4 -5.8°
Sets 22:36:31 0° 118° (ESE) 3,283 6.4 -6.5°
